Location: Newark
(19.8968°N, 89.5281°W)
Time: 04:14:13
(UTC+00:00)

Starlink (trailer) - Visible Passes

Search period start: 24 July 2019 00:00
Search period end: 03 August 2019 00:00
Orbit: 548 x 551 km, 53.0° (Epoch: 23 July)

Date Brightness Start Highest point End Pass type
(mag) Time Alt. Az. Time Alt. Az. Time Alt. Az.
29 Jul 5.0 01:17:18 10° SSE 01:20:07 18° ESE 01:22:58 10° E visible
29 Jul 5.5 02:55:51 10° WSW 02:59:21 29° NW 02:59:21 29° NW visible
30 Jul 4.5 01:11:06 10° S 01:14:37 27° ESE 01:18:09 10° ENE visible
30 Jul 6.2 02:51:02 10° W 02:54:06 20° NW 02:57:11 10° N visible
31 Jul 4.0 01:05:13 10° SSW 01:09:08 42° SE 01:13:04 10° NE visible
31 Jul 6.8 02:46:37 10° WNW 02:48:47 14° NW 02:50:57 10° NNW visible
01 Aug 3.6 00:59:33 10° SSW 01:03:40 69° SE 01:07:47 10° NE visible
01 Aug 7.1 09:31:58 10° NNE 09:32:47 10° NE 09:33:37 10° NE visible
01 Aug 3.6 11:08:30 10° NW 11:12:33 60° SW 11:16:37 10° SSE visible
02 Aug 3.9 00:54:05 10° SW 00:58:12 75° NW 01:02:21 10° NNE visible
02 Aug 6.7 09:25:01 10° N 09:27:29 15° NE 09:29:58 10° E visible
02 Aug 4.1 11:03:16 10° WNW 11:07:05 37° SW 11:10:54 10° SSE visible
